Location: Drocourt
(49.0571°N, 1.7669°E)
Time: 20:37:53
(UTC+00:00)

S-56A Canister/Altair - Pass Details

Date: 13 April 2024
Orbit: 638 x 2488 km, 38.9° (Epoch: 20 May)

Event Time Altitude Azimuth Distance (km) Brightness Sun altitude
Rises 16:42:13 0° 179° (S) 3,527 11.0 18.7°
Reaches altitude 10° 16:47:34 10° 140° (SE) 3,025 10.3 17.8°
Maximum altitude 16:48:46 10° 130° (SE) 3,095 10.3 17.6°
Drops below altitude 10° 16:50:01 10° 121° (ESE) 3,235 10.3 17.4°
Sets 16:57:09 0° 87° (E) 4,821 11.0 16.3°
